Time,TemperatureF,DewpointF,PressureIn,WindDirection,WindDirectionDegrees,WindSpeedMPH,WindSpeedGustMPH,Humidity,HourlyPrecipIn,Conditions,Clouds,dailyrainin,SoftwareType,DateUTC
2013-04-20 00:01:00,47.9,47.9,30.19,South,180,3.0,7.5,100,0.02,,,0.00,NetBSD+Arduino,2013-04-20 07:01:00,
2013-04-20 00:06:00,47.8,47.8,30.20,SW,225,6.0,7.5,100,0.02,,,0.00,NetBSD+Arduino,2013-04-20 07:06:00,
2013-04-20 00:11:00,47.9,47.9,30.20,South,180,0.0,6.0,100,0.02,,,0.00,NetBSD+Arduino,2013-04-20 07:11:00,
2013-04-20 00:16:00,47.9,47.9,30.20,SE,135,1.5,3.0,100,0.02,,,0.00,NetBSD+Arduino,2013-04-20 07:16:00,
2013-04-20 00:21:00,48.0,48.0,30.20,East,90,0.0,3.0,100,0.02,,,0.00,NetBSD+Arduino,2013-04-20 07:21:00,
2013-04-20 00:26:00,48.0,48.0,30.20,NE,45,0.0,4.5,100,0.02,,,0.00,NetBSD+Arduino,2013-04-20 07:26:00,
2013-04-20 00:31:00,48.0,48.0,30.20,South,180,0.0,6.0,100,0.02,,,0.00,NetBSD+Arduino,2013-04-20 07:31:00,
2013-04-20 00:36:00,47.8,47.8,30.20,South,180,1.5,6.0,100,0.02,,,0.00,NetBSD+Arduino,2013-04-20 07:36:00,
2013-04-20 00:41:00,47.8,47.8,30.20,South,180,0.0,6.0,100,0.02,,,0.00,NetBSD+Arduino,2013-04-20 07:41:00,
2013-04-20 00:46:00,47.8,47.8,30.20,South,180,1.5,7.5,100,0.00,,,0.00,NetBSD+Arduino,2013-04-20 07:46:00,
2013-04-20 00:51:00,47.8,47.8,30.20,South,180,3.0,7.5,100,0.00,,,0.00,NetBSD+Arduino,2013-04-20 07:51:00,
2013-04-20 00:56:00,47.8,47.8,30.20,South,180,3.0,7.5,100,0.00,,,0.00,NetBSD+Arduino,2013-04-20 07:56:00,
2013-04-20 01:01:00,47.8,47.8,30.20,SW,225,1.5,6.0,100,0.00,,,0.00,NetBSD+Arduino,2013-04-20 08:01:00,
2013-04-20 01:06:00,47.8,47.8,30.20,South,180,1.5,4.5,100,0.00,,,0.00,NetBSD+Arduino,2013-04-20 08:06:00,
2013-04-20 01:11:00,47.7,47.7,30.20,West,270,3.0,4.5,100,0.00,,,0.00,NetBSD+Arduino,2013-04-20 08:11:00,
2013-04-20 01:16:00,47.7,47.7,30.21,South,180,3.0,4.5,99,0.00,,,0.00,NetBSD+Arduino,2013-04-20 08:16:00,
2013-04-20 01:21:00,47.7,47.7,30.21,South,180,3.0,7.5,100,0.00,,,0.00,NetBSD+Arduino,2013-04-20 08:21:00,
2013-04-20 01:26:00,47.7,47.6,30.21,South,180,1.5,6.0,99,0.00,,,0.00,NetBSD+Arduino,2013-04-20 08:26:00,
2013-04-20 01:31:00,47.7,47.6,30.20,SW,225,3.0,4.5,99,0.00,,,0.00,NetBSD+Arduino,2013-04-20 08:31:00,
2013-04-20 01:36:00,47.7,47.7,30.20,South,180,3.0,6.0,99,0.00,,,0.00,NetBSD+Arduino,2013-04-20 08:36:00,
2013-04-20 01:41:00,47.7,47.7,30.20,South,180,1.5,9.0,100,0.00,,,0.00,NetBSD+Arduino,2013-04-20 08:41:00,
2013-04-20 01:46:00,47.7,47.7,30.20,South,180,1.5,7.5,100,0.00,,,0.00,NetBSD+Arduino,2013-04-20 08:46:00,
2013-04-20 01:51:00,47.6,47.6,30.20,South,180,1.5,10.4,100,0.00,,,0.00,NetBSD+Arduino,2013-04-20 08:51:00,
2013-04-20 01:56:00,47.5,47.5,30.20,SW,225,1.5,9.0,100,0.00,,,0.00,NetBSD+Arduino,2013-04-20 08:56:00,
2013-04-20 02:01:00,47.4,47.4,30.20,SE,135,3.0,9.0,100,0.00,,,0.00,NetBSD+Arduino,2013-04-20 09:01:00,
2013-04-20 02:06:00,47.4,47.4,30.20,SE,135,1.5,7.5,100,0.00,,,0.00,NetBSD+Arduino,2013-04-20 09:06:00,
2013-04-20 02:11:00,47.4,47.4,30.20,South,180,3.0,6.0,100,0.00,,,0.00,NetBSD+Arduino,2013-04-20 09:11:00,
2013-04-20 02:16:00,47.4,47.4,30.19,South,180,1.5,6.0,100,0.00,,,0.00,NetBSD+Arduino,2013-04-20 09:16:00,
2013-04-20 02:21:00,47.4,47.4,30.20,South,180,3.0,6.0,100,0.00,,,0.00,NetBSD+Arduino,2013-04-20 09:21:00,
2013-04-20 02:26:00,47.4,47.4,30.20,South,180,3.0,6.0,100,0.00,,,0.00,NetBSD+Arduino,2013-04-20 09:26:00,
2013-04-20 02:31:00,47.3,47.3,30.20,East,90,1.5,7.5,99,0.00,,,0.00,NetBSD+Arduino,2013-04-20 09:31:00,
2013-04-20 02:36:00,47.4,47.3,30.20,South,180,3.0,7.5,99,0.00,,,0.00,NetBSD+Arduino,2013-04-20 09:36:00,
2013-04-20 02:41:00,47.2,47.0,30.20,South,180,3.0,9.0,99,0.00,,,0.00,NetBSD+Arduino,2013-04-20 09:41:00,
2013-04-20 02:46:00,47.2,47.0,30.20,SW,225,0.0,4.5,99,0.00,,,0.00,NetBSD+Arduino,2013-04-20 09:46:00,
2013-04-20 02:52:00,47.2,47.2,30.20,SW,225,1.5,7.5,99,0.00,,,0.00,NetBSD+Arduino,2013-04-20 09:52:00,
2013-04-20 02:57:00,47.1,46.8,30.21,SE,135,1.5,7.5,99,0.00,,,0.00,NetBSD+Arduino,2013-04-20 09:57:00,
2013-04-20 03:02:00,47.1,46.6,30.20,South,180,1.5,10.4,98,0.00,,,0.00,NetBSD+Arduino,2013-04-20 10:02:00,
2013-04-20 03:07:00,47.1,46.8,30.20,South,180,3.0,7.5,99,0.00,,,0.00,NetBSD+Arduino,2013-04-20 10:07:00,
2013-04-20 03:12:00,46.9,46.7,30.20,South,180,3.0,9.0,98,0.00,,,0.00,NetBSD+Arduino,2013-04-20 10:12:00,
2013-04-20 03:17:00,46.9,46.7,30.20,SE,135,1.5,9.0,98,0.00,,,0.00,NetBSD+Arduino,2013-04-20 10:17:00,
2013-04-20 03:22:00,47.0,46.8,30.20,SE,135,1.5,9.0,99,0.00,,,0.00,NetBSD+Arduino,2013-04-20 10:22:00,
2013-04-20 03:27:00,46.9,46.7,30.20,South,180,4.5,10.4,98,0.00,,,0.00,NetBSD+Arduino,2013-04-20 10:27:00,
2013-04-20 03:32:00,47.0,46.6,30.20,South,180,3.0,7.5,98,0.00,,,0.00,NetBSD+Arduino,2013-04-20 10:32:00,
2013-04-20 03:37:00,46.9,46.7,30.20,South,180,3.0,6.0,98,0.00,,,0.00,NetBSD+Arduino,2013-04-20 10:37:00,
2013-04-20 03:42:00,46.9,46.4,30.20,South,180,0.0,7.5,98,0.00,,,0.00,NetBSD+Arduino,2013-04-20 10:42:00,
2013-04-20 03:47:00,46.9,46.4,30.20,South,180,0.0,6.0,98,0.00,,,0.00,NetBSD+Arduino,2013-04-20 10:47:00,
2013-04-20 03:52:00,46.8,46.1,30.21,South,180,4.5,9.0,97,0.00,,,0.00,NetBSD+Arduino,2013-04-20 10:52:00,
2013-04-20 03:57:00,46.8,46.2,30.20,SW,225,9.0,10.4,97,0.00,,,0.00,NetBSD+Arduino,2013-04-20 10:57:00,
2013-04-20 04:02:00,46.8,46.4,30.21,South,180,3.0,7.5,98,0.00,,,0.00,NetBSD+Arduino,2013-04-20 11:02:00,
2013-04-20 04:07:00,46.7,46.5,30.21,South,180,4.5,7.5,98,0.00,,,0.00,NetBSD+Arduino,2013-04-20 11:07:00,
2013-04-20 04:12:00,46.7,46.5,30.22,South,180,1.5,7.5,98,0.00,,,0.00,NetBSD+Arduino,2013-04-20 11:12:00,
2013-04-20 04:17:00,46.7,46.2,30.21,South,180,3.0,10.4,98,0.00,,,0.00,NetBSD+Arduino,2013-04-20 11:17:00,
2013-04-20 04:22:00,46.7,46.2,30.22,South,180,3.0,6.0,98,0.00,,,0.00,NetBSD+Arduino,2013-04-20 11:22:00,
2013-04-20 04:27:00,46.7,46.4,30.22,South,180,1.5,4.5,98,0.00,,,0.00,NetBSD+Arduino,2013-04-20 11:27:00,
2013-04-20 04:32:00,46.7,46.2,30.22,SE,135,3.0,7.5,98,0.00,,,0.00,NetBSD+Arduino,2013-04-20 11:32:00,
2013-04-20 04:38:00,46.6,46.1,30.22,South,180,3.0,6.0,98,0.00,,,0.00,NetBSD+Arduino,2013-04-20 11:38:00,
2013-04-20 04:43:00,46.7,46.0,30.22,SW,225,1.5,4.5,97,0.00,,,0.00,NetBSD+Arduino,2013-04-20 11:43:00,
2013-04-20 04:48:00,46.7,46.0,30.22,South,180,3.0,7.5,97,0.00,,,0.00,NetBSD+Arduino,2013-04-20 11:48:00,
2013-04-20 04:53:00,46.7,46.2,30.23,SW,225,1.5,6.0,98,0.00,,,0.00,NetBSD+Arduino,2013-04-20 11:53:00,
2013-04-20 04:58:00,46.7,46.2,30.23,SW,225,1.5,4.5,98,0.00,,,0.00,NetBSD+Arduino,2013-04-20 11:58:00,
2013-04-20 05:03:00,46.7,46.2,30.23,West,270,3.0,7.5,98,0.00,,,0.00,NetBSD+Arduino,2013-04-20 12:03:00,
2013-04-20 05:08:00,46.7,46.2,30.23,South,180,3.0,9.0,98,0.00,,,0.00,NetBSD+Arduino,2013-04-20 12:08:00,
2013-04-20 05:13:00,46.6,46.1,30.23,South,180,1.5,6.0,98,0.00,,,0.00,NetBSD+Arduino,2013-04-20 12:13:00,
2013-04-20 05:18:00,46.6,45.9,30.23,South,180,0.0,7.5,97,0.00,,,0.00,NetBSD+Arduino,2013-04-20 12:18:00,
2013-04-20 05:23:00,46.5,45.8,30.22,West,270,1.5,9.0,97,0.00,,,0.00,NetBSD+Arduino,2013-04-20 12:23:00,
2013-04-20 05:28:00,46.5,45.8,30.23,South,180,1.5,6.0,97,0.00,,,0.00,NetBSD+Arduino,2013-04-20 12:28:00,
2013-04-20 05:33:00,46.5,45.7,30.22,South,180,1.5,9.0,96,0.00,,,0.00,NetBSD+Arduino,2013-04-20 12:33:00,
2013-04-20 05:38:00,46.5,45.8,30.23,South,180,3.0,7.5,97,0.00,,,0.00,NetBSD+Arduino,2013-04-20 12:38:00,
2013-04-20 05:43:00,46.5,45.9,30.23,South,180,0.0,7.5,97,0.00,,,0.00,NetBSD+Arduino,2013-04-20 12:43:00,
2013-04-20 05:48:00,46.4,45.7,30.23,South,180,3.0,7.5,97,0.00,,,0.00,NetBSD+Arduino,2013-04-20 12:48:00,
2013-04-20 05:53:00,46.5,45.9,30.23,South,180,0.0,3.0,97,0.00,,,0.00,NetBSD+Arduino,2013-04-20 12:53:00,
2013-04-20 05:58:00,46.4,45.5,30.23,South,180,3.0,6.0,96,0.00,,,0.00,NetBSD+Arduino,2013-04-20 12:58:00,
2013-04-20 06:03:00,46.5,46.0,30.23,West,270,1.5,4.5,98,0.00,,,0.00,NetBSD+Arduino,2013-04-20 13:03:00,
2013-04-20 06:08:00,46.4,45.6,30.23,West,270,0.0,4.5,96,0.00,,,0.00,NetBSD+Arduino,2013-04-20 13:08:00,
2013-04-20 06:13:00,46.5,45.8,30.23,South,180,1.5,6.0,97,0.00,,,0.00,NetBSD+Arduino,2013-04-20 13:13:00,
2013-04-20 06:18:00,46.5,45.8,30.23,South,180,3.0,7.5,97,0.00,,,0.00,NetBSD+Arduino,2013-04-20 13:18:00,
2013-04-20 06:23:00,46.5,46.0,30.24,South,180,1.5,7.5,98,0.00,,,0.00,NetBSD+Arduino,2013-04-20 13:23:00,
2013-04-20 06:28:00,46.5,45.6,30.23,SW,225,1.5,9.0,96,0.00,,,0.00,NetBSD+Arduino,2013-04-20 13:28:00,
2013-04-20 06:33:00,46.5,45.8,30.23,South,180,4.5,6.0,97,0.00,,,0.00,NetBSD+Arduino,2013-04-20 13:33:00,
2013-04-20 06:38:00,46.5,45.6,30.23,SW,225,3.0,6.0,96,0.00,,,0.00,NetBSD+Arduino,2013-04-20 13:38:00,
2013-04-20 06:43:00,46.5,45.8,30.23,South,180,1.5,4.5,97,0.00,,,0.00,NetBSD+Arduino,2013-04-20 13:43:00,
2013-04-20 06:48:00,46.5,45.7,30.23,SW,225,6.0,6.0,96,0.00,,,0.00,NetBSD+Arduino,2013-04-20 13:48:00,
2013-04-20 06:53:00,46.5,45.6,30.24,West,270,1.5,6.0,96,0.00,,,0.00,NetBSD+Arduino,2013-04-20 13:53:00,
2013-04-20 06:58:00,46.5,45.6,30.23,South,180,0.0,9.0,96,0.00,,,0.00,NetBSD+Arduino,2013-04-20 13:58:00,
2013-04-20 07:03:00,46.6,45.4,30.24,South,180,1.5,9.0,95,0.00,,,0.00,NetBSD+Arduino,2013-04-20 14:03:00,
2013-04-20 07:08:00,46.5,45.4,30.23,SE,135,3.0,7.5,95,0.00,,,0.00,NetBSD+Arduino,2013-04-20 14:08:00,
2013-04-20 07:13:00,46.7,45.5,30.24,SW,225,0.0,7.5,95,0.00,,,0.00,NetBSD+Arduino,2013-04-20 14:13:00,
2013-04-20 07:18:00,46.7,45.2,30.25,SW,225,4.5,7.5,94,0.00,,,0.00,NetBSD+Arduino,2013-04-20 14:18:00,
2013-04-20 07:23:00,46.7,45.5,30.24,South,180,1.5,7.5,95,0.00,,,0.00,NetBSD+Arduino,2013-04-20 14:23:00,
2013-04-20 07:28:00,46.7,45.3,30.25,South,180,4.5,7.5,94,0.00,,,0.00,NetBSD+Arduino,2013-04-20 14:28:00,
2013-04-20 07:33:00,46.7,45.7,30.24,SW,225,0.0,9.0,96,0.00,,,0.00,NetBSD+Arduino,2013-04-20 14:33:00,
2013-04-20 07:38:00,46.9,45.7,30.25,South,180,4.5,7.5,95,0.00,,,0.00,NetBSD+Arduino,2013-04-20 14:38:00,
2013-04-20 07:43:00,46.8,45.7,30.24,South,180,3.0,6.0,95,0.00,,,0.00,NetBSD+Arduino,2013-04-20 14:43:00,
2013-04-20 07:48:00,46.8,45.7,30.25,South,180,1.5,7.5,95,0.00,,,0.00,NetBSD+Arduino,2013-04-20 14:48:00,
2013-04-20 07:53:00,46.8,45.5,30.25,South,180,6.0,10.4,95,0.00,,,0.00,NetBSD+Arduino,2013-04-20 14:53:00,
2013-04-20 07:58:00,46.8,45.4,30.25,South,180,1.5,9.0,94,0.00,,,0.00,NetBSD+Arduino,2013-04-20 14:58:00,
2013-04-20 08:03:00,46.8,45.4,30.25,SW,225,0.0,7.5,94,0.00,,,0.00,NetBSD+Arduino,2013-04-20 15:03:00,
2013-04-20 08:08:00,46.9,45.7,30.25,South,180,3.0,6.0,95,0.00,,,0.00,NetBSD+Arduino,2013-04-20 15:08:00,
2013-04-20 08:13:00,46.9,45.3,30.25,SW,225,3.0,9.0,94,0.00,,,0.00,NetBSD+Arduino,2013-04-20 15:13:00,
2013-04-20 08:18:00,46.9,45.7,30.25,South,180,1.5,9.0,95,0.00,,,0.00,NetBSD+Arduino,2013-04-20 15:18:00,
2013-04-20 08:23:00,46.9,45.8,30.25,NW,315,0.0,7.5,95,0.00,,,0.00,NetBSD+Arduino,2013-04-20 15:23:00,
2013-04-20 08:28:00,46.9,45.6,30.25,SW,225,4.5,4.5,95,0.00,,,0.00,NetBSD+Arduino,2013-04-20 15:28:00,
2013-04-20 08:33:00,47.1,46.0,30.25,North,0,1.5,7.5,95,0.00,,,0.00,NetBSD+Arduino,2013-04-20 15:33:00,
2013-04-20 08:38:00,47.1,45.5,30.25,SW,225,0.0,9.0,94,0.00,,,0.00,NetBSD+Arduino,2013-04-20 15:38:00,
2013-04-20 08:43:00,47.4,46.1,30.25,West,270,1.5,3.0,95,0.00,,,0.00,NetBSD+Arduino,2013-04-20 15:43:00,
2013-04-20 08:48:00,47.4,45.7,30.25,South,180,0.0,6.0,93,0.00,,,0.00,NetBSD+Arduino,2013-04-20 15:48:00,
2013-04-20 08:53:00,47.4,45.7,30.25,West,270,4.5,10.4,93,0.00,,,0.00,NetBSD+Arduino,2013-04-20 15:53:00,
2013-04-20 08:58:00,47.5,46.1,30.25,South,180,1.5,7.5,94,0.00,,,0.00,NetBSD+Arduino,2013-04-20 15:58:00,
2013-04-20 09:03:00,47.4,45.9,30.25,West,270,0.0,4.5,94,0.00,,,0.00,NetBSD+Arduino,2013-04-20 16:03:00,
2013-04-20 09:08:00,47.7,46.3,30.25,West,270,0.0,6.0,95,0.00,,,0.00,NetBSD+Arduino,2013-04-20 16:08:00,
2013-04-20 09:13:00,47.8,46.5,30.25,West,270,0.0,4.5,95,0.00,,,0.00,NetBSD+Arduino,2013-04-20 16:13:00,
2013-04-20 09:18:00,47.8,46.3,30.25,SW,225,0.0,4.5,94,0.00,,,0.00,NetBSD+Arduino,2013-04-20 16:18:00,
2013-04-20 09:23:00,47.7,45.9,30.25,South,180,1.5,6.0,93,0.00,,,0.00,NetBSD+Arduino,2013-04-20 16:23:00,
2013-04-20 09:28:00,47.7,46.1,30.26,SE,135,0.0,3.0,94,0.00,,,0.00,NetBSD+Arduino,2013-04-20 16:28:00,
2013-04-20 09:33:00,47.8,46.1,30.25,South,180,3.0,4.5,93,0.00,,,0.00,NetBSD+Arduino,2013-04-20 16:33:00,
2013-04-20 09:38:00,48.0,46.2,30.26,South,180,0.0,6.0,93,0.00,,,0.00,NetBSD+Arduino,2013-04-20 16:38:00,
2013-04-20 09:43:00,48.0,46.5,30.25,South,180,1.5,3.0,94,0.00,,,0.00,NetBSD+Arduino,2013-04-20 16:43:00,
2013-04-20 09:48:00,48.2,46.5,30.26,NW,315,0.0,3.0,93,0.00,,,0.00,NetBSD+Arduino,2013-04-20 16:48:00,
2013-04-20 09:53:00,48.5,46.5,30.26,SE,135,3.0,6.0,92,0.00,,,0.00,NetBSD+Arduino,2013-04-20 16:53:00,
2013-04-20 09:58:00,48.5,46.5,30.26,South,180,0.0,6.0,92,0.00,,,0.00,NetBSD+Arduino,2013-04-20 16:58:00,
2013-04-20 10:03:00,48.7,46.3,30.26,SE,135,1.5,4.5,91,0.00,,,0.00,NetBSD+Arduino,2013-04-20 17:03:00,
2013-04-20 10:08:00,48.6,46.4,30.26,SW,225,1.5,6.0,92,0.00,,,0.00,NetBSD+Arduino,2013-04-20 17:08:00,
2013-04-20 10:13:00,48.7,46.8,30.26,South,180,3.0,4.5,92,0.00,,,0.00,NetBSD+Arduino,2013-04-20 17:13:00,
2013-04-20 10:18:00,48.7,46.7,30.26,West,270,0.0,3.0,92,0.00,,,0.00,NetBSD+Arduino,2013-04-20 17:18:00,
2013-04-20 10:23:00,48.7,46.2,30.26,South,180,3.0,6.0,91,0.00,,,0.00,NetBSD+Arduino,2013-04-20 17:23:00,
2013-04-20 10:28:00,48.8,46.6,30.26,West,270,0.0,4.5,92,0.00,,,0.00,NetBSD+Arduino,2013-04-20 17:28:00,
2013-04-20 10:33:00,49.0,46.9,30.26,South,180,1.5,4.5,92,0.00,,,0.00,NetBSD+Arduino,2013-04-20 17:33:00,
2013-04-20 10:38:00,49.0,46.9,30.27,South,180,0.0,3.0,92,0.00,,,0.00,NetBSD+Arduino,2013-04-20 17:38:00,
2013-04-20 10:43:00,49.0,46.9,30.27,South,180,1.5,6.0,92,0.00,,,0.00,NetBSD+Arduino,2013-04-20 17:43:00,
2013-04-20 10:48:00,49.0,46.9,30.26,South,180,4.5,6.0,92,0.00,,,0.00,NetBSD+Arduino,2013-04-20 17:48:00,
2013-04-20 10:53:00,49.9,47.5,30.26,South,180,0.0,7.5,91,0.00,,,0.00,NetBSD+Arduino,2013-04-20 17:53:00,
2013-04-20 10:58:00,50.0,47.4,30.27,SE,135,1.5,4.5,90,0.00,,,0.00,NetBSD+Arduino,2013-04-20 17:58:00,
2013-04-20 11:03:00,50.0,46.8,30.27,South,180,3.0,6.0,88,0.00,,,0.00,NetBSD+Arduino,2013-04-20 18:03:00,
2013-04-20 11:08:00,49.9,46.7,30.28,SE,135,1.5,4.5,88,0.00,,,0.00,NetBSD+Arduino,2013-04-20 18:08:00,
2013-04-20 11:13:00,49.9,46.7,30.28,SE,135,0.0,4.5,88,0.00,,,0.00,NetBSD+Arduino,2013-04-20 18:13:00,
2013-04-20 11:18:00,50.3,47.4,30.28,SW,225,1.5,4.5,89,0.00,,,0.00,NetBSD+Arduino,2013-04-20 18:18:00,
2013-04-20 11:23:00,50.3,46.9,30.28,South,180,4.5,9.0,88,0.00,,,0.00,NetBSD+Arduino,2013-04-20 18:23:00,
2013-04-20 11:28:00,50.4,47.1,30.28,South,180,3.0,9.0,88,0.00,,,0.00,NetBSD+Arduino,2013-04-20 18:28:00,
2013-04-20 11:33:00,50.5,47.2,30.28,SW,225,3.0,6.0,88,0.00,,,0.00,NetBSD+Arduino,2013-04-20 18:33:00,
2013-04-20 11:38:00,50.5,47.1,30.28,NE,45,0.0,3.0,88,0.00,,,0.00,NetBSD+Arduino,2013-04-20 18:38:00,
2013-04-20 11:43:00,50.4,47.6,30.28,SW,225,3.0,3.0,90,0.00,,,0.00,NetBSD+Arduino,2013-04-20 18:43:00,
2013-04-20 11:48:00,50.5,47.7,30.28,West,270,0.0,4.5,89,0.00,,,0.00,NetBSD+Arduino,2013-04-20 18:48:00,
2013-04-20 11:53:00,50.8,47.1,30.28,SW,225,3.0,3.0,86,0.00,,,0.00,NetBSD+Arduino,2013-04-20 18:53:00,
2013-04-20 11:58:00,51.1,47.8,30.28,South,180,3.0,4.5,88,0.00,,,0.00,NetBSD+Arduino,2013-04-20 18:58:00,
2013-04-20 12:03:00,51.7,47.6,30.28,SW,225,0.0,3.0,85,0.00,,,0.00,NetBSD+Arduino,2013-04-20 19:03:00,
2013-04-20 12:08:00,52.1,48.7,30.28,East,90,0.0,3.0,87,0.00,,,0.00,NetBSD+Arduino,2013-04-20 19:08:00,
2013-04-20 12:13:00,52.8,49.0,30.28,South,180,1.5,4.5,86,0.00,,,0.00,NetBSD+Arduino,2013-04-20 19:13:00,
2013-04-20 12:18:00,53.3,48.2,30.28,South,180,0.0,6.0,82,0.00,,,0.00,NetBSD+Arduino,2013-04-20 19:18:00,
2013-04-20 12:23:00,53.3,47.8,30.28,SW,225,0.0,4.5,81,0.00,,,0.00,NetBSD+Arduino,2013-04-20 19:23:00,
2013-04-20 12:28:00,53.6,48.7,30.28,South,180,1.5,4.5,83,0.00,,,0.00,NetBSD+Arduino,2013-04-20 19:28:00,
2013-04-20 12:33:00,53.8,48.5,30.28,SE,135,1.5,4.5,82,0.00,,,0.00,NetBSD+Arduino,2013-04-20 19:33:00,
2013-04-20 12:38:00,54.0,49.5,30.28,SE,135,0.0,4.5,84,0.00,,,0.00,NetBSD+Arduino,2013-04-20 19:38:00,
2013-04-20 12:43:00,54.4,49.5,30.27,SE,135,1.5,6.0,83,0.00,,,0.00,NetBSD+Arduino,2013-04-20 19:43:00,
2013-04-20 12:48:00,54.1,48.7,30.28,South,180,1.5,6.0,81,0.00,,,0.00,NetBSD+Arduino,2013-04-20 19:48:00,
2013-04-20 12:53:00,54.0,48.7,30.27,East,90,4.5,4.5,82,0.00,,,0.00,NetBSD+Arduino,2013-04-20 19:53:00,
2013-04-20 12:58:00,54.3,48.8,30.27,South,180,0.0,6.0,81,0.00,,,0.00,NetBSD+Arduino,2013-04-20 19:58:00,
2013-04-20 13:03:00,54.3,49.1,30.27,SW,225,0.0,3.0,82,0.00,,,0.00,NetBSD+Arduino,2013-04-20 20:03:00,
2013-04-20 13:08:00,54.1,49.0,30.27,SE,135,3.0,4.5,82,0.00,,,0.00,NetBSD+Arduino,2013-04-20 20:08:00,
2013-04-20 13:13:00,53.5,47.9,30.27,South,180,1.5,6.0,81,0.00,,,0.00,NetBSD+Arduino,2013-04-20 20:13:00,
2013-04-20 13:18:00,52.8,47.7,30.27,SE,135,4.5,4.5,82,0.00,,,0.00,NetBSD+Arduino,2013-04-20 20:18:00,
2013-04-20 13:23:00,52.6,47.9,30.26,South,180,3.0,4.5,84,0.00,,,0.00,NetBSD+Arduino,2013-04-20 20:23:00,
2013-04-20 13:28:00,52.8,47.0,30.26,South,180,1.5,6.0,80,0.00,,,0.00,NetBSD+Arduino,2013-04-20 20:28:00,
2013-04-20 13:33:00,53.3,47.9,30.26,SE,135,3.0,4.5,81,0.00,,,0.00,NetBSD+Arduino,2013-04-20 20:33:00,
2013-04-20 13:38:00,53.4,48.2,30.26,NW,315,1.5,6.0,82,0.00,,,0.00,NetBSD+Arduino,2013-04-20 20:38:00,
2013-04-20 13:43:00,53.7,47.4,30.26,South,180,1.5,7.5,79,0.00,,,0.00,NetBSD+Arduino,2013-04-20 20:43:00,
2013-04-20 13:48:00,53.7,48.2,30.26,West,270,4.5,7.5,81,0.00,,,0.00,NetBSD+Arduino,2013-04-20 20:48:00,
2013-04-20 13:53:00,54.3,48.3,30.26,NW,315,1.5,7.5,80,0.00,,,0.00,NetBSD+Arduino,2013-04-20 20:53:00,
2013-04-20 13:58:00,54.7,47.2,30.25,South,180,1.5,6.0,75,0.00,,,0.00,NetBSD+Arduino,2013-04-20 20:58:00,
2013-04-20 14:03:00,55.0,48.4,30.25,NW,315,3.0,6.0,78,0.00,,,0.00,NetBSD+Arduino,2013-04-20 21:03:00,
2013-04-20 14:08:00,55.4,47.8,30.25,West,270,3.0,6.0,75,0.00,,,0.00,NetBSD+Arduino,2013-04-20 21:08:00,
2013-04-20 14:13:00,55.4,48.2,30.25,SW,225,1.5,7.5,76,0.00,,,0.00,NetBSD+Arduino,2013-04-20 21:13:00,
2013-04-20 14:18:00,55.9,49.0,30.25,South,180,6.0,6.0,77,0.00,,,0.00,NetBSD+Arduino,2013-04-20 21:18:00,
2013-04-20 14:23:00,55.8,48.0,30.25,West,270,1.5,7.5,74,0.00,,,0.00,NetBSD+Arduino,2013-04-20 21:23:00,
2013-04-20 14:28:00,56.4,47.9,30.25,South,180,4.5,10.4,73,0.00,,,0.00,NetBSD+Arduino,2013-04-20 21:28:00,
2013-04-20 14:33:00,56.7,48.8,30.25,West,270,1.5,9.0,75,0.00,,,0.00,NetBSD+Arduino,2013-04-20 21:33:00,
2013-04-20 14:38:00,56.5,47.7,30.25,SW,225,0.0,6.0,72,0.00,,,0.00,NetBSD+Arduino,2013-04-20 21:38:00,
2013-04-20 14:43:00,56.4,48.5,30.25,NW,315,4.5,6.0,74,0.00,,,0.00,NetBSD+Arduino,2013-04-20 21:43:00,
2013-04-20 14:48:00,56.4,48.6,30.25,SW,225,3.0,7.5,74,0.00,,,0.00,NetBSD+Arduino,2013-04-20 21:48:00,
2013-04-20 14:53:00,56.4,49.1,30.25,West,270,0.0,6.0,76,0.00,,,0.00,NetBSD+Arduino,2013-04-20 21:53:00,
2013-04-20 14:58:00,56.7,49.2,30.25,West,270,1.5,4.5,75,0.00,,,0.00,NetBSD+Arduino,2013-04-20 21:58:00,
2013-04-20 15:03:00,56.4,48.3,30.25,SW,225,4.5,7.5,74,0.00,,,0.00,NetBSD+Arduino,2013-04-20 22:03:00,
2013-04-20 15:08:00,56.4,48.7,30.25,South,180,3.0,6.0,75,0.00,,,0.00,NetBSD+Arduino,2013-04-20 22:08:00,
2013-04-20 15:13:00,56.1,47.8,30.25,East,90,0.0,6.0,73,0.00,,,0.00,NetBSD+Arduino,2013-04-20 22:13:00,
2013-04-20 15:18:00,55.9,48.5,30.25,South,180,4.5,6.0,76,0.00,,,0.00,NetBSD+Arduino,2013-04-20 22:18:00,
2013-04-20 15:23:00,55.4,49.7,30.26,SE,135,3.0,4.5,81,0.00,,,0.00,NetBSD+Arduino,2013-04-20 22:23:00,
2013-04-20 15:28:00,56.2,50.7,30.26,East,90,3.0,6.0,82,0.00,,,0.00,NetBSD+Arduino,2013-04-20 22:28:00,
2013-04-20 15:33:00,55.7,49.7,30.25,South,180,3.0,6.0,80,0.00,,,0.00,NetBSD+Arduino,2013-04-20 22:33:00,
2013-04-20 15:38:00,54.9,50.1,30.26,East,90,1.5,9.0,83,0.00,,,0.00,NetBSD+Arduino,2013-04-20 22:38:00,
2013-04-20 15:43:00,54.6,50.0,30.25,South,180,3.0,7.5,84,0.00,,,0.00,NetBSD+Arduino,2013-04-20 22:43:00,
2013-04-20 15:48:00,54.7,50.7,30.25,East,90,3.0,9.0,86,0.00,,,0.00,NetBSD+Arduino,2013-04-20 22:48:00,
2013-04-20 15:53:00,54.4,50.7,30.25,SW,225,0.0,6.0,87,0.00,,,0.00,NetBSD+Arduino,2013-04-20 22:53:00,
2013-04-20 15:58:00,54.4,51.7,30.25,SE,135,4.5,6.0,90,0.00,,,0.00,NetBSD+Arduino,2013-04-20 22:58:00,
2013-04-20 16:03:00,54.1,51.1,30.26,SW,225,0.0,6.0,89,0.00,,,0.00,NetBSD+Arduino,2013-04-20 23:03:00,
2013-04-20 16:08:00,54.0,51.5,30.25,East,90,1.5,4.5,91,0.00,,,0.00,NetBSD+Arduino,2013-04-20 23:08:00,
2013-04-20 16:13:00,54.1,51.9,30.25,South,180,3.0,4.5,92,0.00,,,0.00,NetBSD+Arduino,2013-04-20 23:13:00,
2013-04-20 16:18:00,53.4,50.9,30.25,South,180,3.0,6.0,91,0.00,,,0.00,NetBSD+Arduino,2013-04-20 23:18:00,
2013-04-20 16:23:00,52.8,50.2,30.25,SE,135,6.0,7.5,90,0.02,,,0.02,NetBSD+Arduino,2013-04-20 23:23:00,
2013-04-20 16:28:00,52.3,50.9,30.25,East,90,0.0,6.0,94,0.02,,,0.02,NetBSD+Arduino,2013-04-20 23:28:00,
2013-04-20 16:33:00,51.7,50.3,30.25,SE,135,0.0,6.0,94,0.02,,,0.02,NetBSD+Arduino,2013-04-20 23:33:00,
2013-04-20 16:38:00,51.7,50.7,30.25,East,90,0.0,4.5,96,0.02,,,0.02,NetBSD+Arduino,2013-04-20 23:38:00,
2013-04-20 16:43:00,51.8,51.0,30.24,East,90,0.0,3.0,96,0.02,,,0.02,NetBSD+Arduino,2013-04-20 23:43:00,
2013-04-20 16:48:00,52.1,51.3,30.24,SW,225,0.0,3.0,97,0.02,,,0.02,NetBSD+Arduino,2013-04-20 23:48:00,
2013-04-20 16:53:00,51.8,50.4,30.24,South,180,0.0,4.5,94,0.03,,,0.03,NetBSD+Arduino,2013-04-20 23:53:00,
2013-04-20 16:58:00,51.8,50.3,30.24,East,90,1.5,4.5,94,0.03,,,0.03,NetBSD+Arduino,2013-04-20 23:58:00,
2013-04-20 17:03:00,51.7,50.3,30.24,SE,135,0.0,4.5,94,0.03,,,0.03,NetBSD+Arduino,2013-04-21 00:03:00,
2013-04-20 17:08:00,51.5,50.4,30.24,East,90,1.5,3.0,95,0.03,,,0.03,NetBSD+Arduino,2013-04-21 00:08:00,
2013-04-20 17:13:00,51.6,50.7,30.24,East,90,0.0,3.0,96,0.03,,,0.03,NetBSD+Arduino,2013-04-21 00:13:00,
2013-04-20 17:18:00,51.5,50.7,30.24,East,90,1.5,3.0,96,0.05,,,0.05,NetBSD+Arduino,2013-04-21 00:18:00,
2013-04-20 17:23:00,51.5,50.9,30.24,NE,45,0.0,3.0,97,0.03,,,0.05,NetBSD+Arduino,2013-04-21 00:23:00,
2013-04-20 17:28:00,51.4,50.9,30.23,East,90,0.0,3.0,98,0.03,,,0.05,NetBSD+Arduino,2013-04-21 00:28:00,
2013-04-20 17:33:00,51.3,50.6,30.23,North,0,3.0,3.0,97,0.03,,,0.05,NetBSD+Arduino,2013-04-21 00:33:00,
2013-04-20 17:38:00,51.1,50.4,30.23,NE,45,3.0,4.5,97,0.03,,,0.05,NetBSD+Arduino,2013-04-21 00:38:00,
2013-04-20 17:43:00,51.1,50.6,30.23,NW,315,1.5,6.0,98,0.03,,,0.05,NetBSD+Arduino,2013-04-21 00:43:00,
2013-04-20 17:48:00,50.8,50.2,30.23,NE,45,3.0,6.0,97,0.05,,,0.06,NetBSD+Arduino,2013-04-21 00:48:00,
2013-04-20 17:53:00,50.8,50.4,30.23,East,90,6.0,7.5,98,0.03,,,0.06,NetBSD+Arduino,2013-04-21 00:53:00,
2013-04-20 17:58:00,50.7,50.6,30.23,North,0,4.5,7.5,99,0.03,,,0.06,NetBSD+Arduino,2013-04-21 00:58:00,
2013-04-20 18:03:00,50.7,50.7,30.23,SE,135,3.0,7.5,100,0.03,,,0.06,NetBSD+Arduino,2013-04-21 01:03:00,
2013-04-20 18:08:00,50.5,50.5,30.23,East,90,3.0,9.0,100,0.03,,,0.06,NetBSD+Arduino,2013-04-21 01:08:00,
2013-04-20 18:13:00,50.5,50.5,30.23,East,90,1.5,10.4,100,0.03,,,0.06,NetBSD+Arduino,2013-04-21 01:13:00,
2013-04-20 18:18:00,50.7,50.7,30.23,East,90,3.0,7.5,100,0.02,,,0.06,NetBSD+Arduino,2013-04-21 01:18:00,
2013-04-20 18:23:00,50.7,50.7,30.23,NE,45,4.5,6.0,100,0.02,,,0.06,NetBSD+Arduino,2013-04-21 01:23:00,
2013-04-20 18:28:00,50.7,50.7,30.23,East,90,4.5,7.5,100,0.02,,,0.06,NetBSD+Arduino,2013-04-21 01:28:00,
2013-04-20 18:33:00,50.7,50.7,30.23,NE,45,3.0,7.5,100,0.02,,,0.06,NetBSD+Arduino,2013-04-21 01:33:00,
2013-04-20 18:38:00,50.7,50.7,30.23,North,0,1.5,6.0,100,0.02,,,0.06,NetBSD+Arduino,2013-04-21 01:38:00,
2013-04-20 18:43:00,50.8,50.8,30.23,SW,225,1.5,7.5,99,0.02,,,0.06,NetBSD+Arduino,2013-04-21 01:43:00,
2013-04-20 18:48:00,50.8,50.8,30.23,SW,225,0.0,3.0,100,0.00,,,0.06,NetBSD+Arduino,2013-04-21 01:48:00,
2013-04-20 18:53:00,50.8,50.8,30.23,NE,45,1.5,4.5,100,0.00,,,0.06,NetBSD+Arduino,2013-04-21 01:53:00,
2013-04-20 18:58:00,50.7,50.7,30.22,East,90,4.5,4.5,100,0.00,,,0.06,NetBSD+Arduino,2013-04-21 01:58:00,
2013-04-20 19:03:00,50.5,50.4,30.22,East,90,1.5,4.5,99,0.00,,,0.06,NetBSD+Arduino,2013-04-21 02:03:00,
2013-04-20 19:08:00,50.4,50.5,30.22,NE,45,3.0,4.5,99,0.00,,,0.06,NetBSD+Arduino,2013-04-21 02:08:00,
2013-04-20 19:13:00,50.3,50.3,30.23,NE,45,1.5,4.5,100,0.00,,,0.06,NetBSD+Arduino,2013-04-21 02:13:00,
2013-04-20 19:19:00,50.1,50.1,30.23,North,0,3.0,10.4,99,0.00,,,0.06,NetBSD+Arduino,2013-04-21 02:19:00,
2013-04-20 19:25:00,50.1,50.1,30.23,North,0,4.5,9.0,99,0.00,,,0.06,NetBSD+Arduino,2013-04-21 02:25:00,
2013-04-20 19:30:00,49.1,48.8,30.23,NE,45,6.0,13.4,98,0.00,,,0.06,NetBSD+Arduino,2013-04-21 02:30:00,
2013-04-20 19:35:00,49.2,49.1,30.22,North,0,6.0,9.0,99,0.00,,,0.06,NetBSD+Arduino,2013-04-21 02:35:00,
2013-04-20 19:40:00,49.2,48.6,30.23,East,90,3.0,7.5,97,0.00,,,0.06,NetBSD+Arduino,2013-04-21 02:40:00,
2013-04-20 19:45:00,48.8,48.1,30.23,NE,45,0.0,10.4,97,0.00,,,0.06,NetBSD+Arduino,2013-04-21 02:45:00,
2013-04-20 19:51:00,48.1,47.9,30.23,East,90,9.0,13.4,99,0.00,,,0.06,NetBSD+Arduino,2013-04-21 02:51:00,
2013-04-20 19:56:00,47.8,47.8,30.23,NE,45,9.0,11.9,99,0.02,,,0.08,NetBSD+Arduino,2013-04-21 02:56:00,
2013-04-20 20:01:00,47.6,47.6,30.23,NE,45,4.5,11.9,99,0.03,,,0.10,NetBSD+Arduino,2013-04-21 03:01:00,
2013-04-20 20:06:00,47.6,47.6,30.23,North,0,4.5,9.0,100,0.03,,,0.10,NetBSD+Arduino,2013-04-21 03:06:00,
2013-04-20 20:11:00,47.5,47.5,30.23,NW,315,3.0,9.0,100,0.03,,,0.10,NetBSD+Arduino,2013-04-21 03:11:00,
2013-04-20 20:16:00,47.4,47.4,30.23,NE,45,7.5,10.4,100,0.05,,,0.11,NetBSD+Arduino,2013-04-21 03:16:00,
2013-04-20 20:21:00,47.2,47.2,30.23,East,90,4.5,7.5,99,0.05,,,0.11,NetBSD+Arduino,2013-04-21 03:21:00,
2013-04-20 20:26:00,47.2,47.2,30.23,NE,45,6.0,10.4,99,0.05,,,0.11,NetBSD+Arduino,2013-04-21 03:26:00,
2013-04-20 20:31:00,47.0,47.0,30.23,North,0,6.0,13.4,99,0.06,,,0.13,NetBSD+Arduino,2013-04-21 03:31:00,
2013-04-20 20:37:00,46.9,46.9,30.25,East,90,3.0,13.4,100,0.06,,,0.13,NetBSD+Arduino,2013-04-21 03:37:00,
2013-04-20 20:42:00,46.9,46.9,30.24,North,0,7.5,10.4,100,0.06,,,0.13,NetBSD+Arduino,2013-04-21 03:42:00,
2013-04-20 20:47:00,46.9,46.9,30.25,North,0,3.0,10.4,100,0.06,,,0.13,NetBSD+Arduino,2013-04-21 03:47:00,
2013-04-20 20:52:00,46.9,46.9,30.25,North,0,6.0,10.4,100,0.05,,,0.13,NetBSD+Arduino,2013-04-21 03:52:00,
2013-04-20 20:57:00,46.9,46.9,30.25,NE,45,3.0,9.0,100,0.05,,,0.13,NetBSD+Arduino,2013-04-21 03:57:00,
2013-04-20 21:01:00,46.9,46.9,30.25,North,0,0.0,9.0,100,0.03,,,0.13,NetBSD+Arduino,2013-04-21 04:01:00,
2013-04-20 21:02:00,46.9,46.9,30.25,North,0,1.5,9.0,100,0.03,,,0.13,NetBSD+Arduino,2013-04-21 04:02:00,
2013-04-20 21:04:00,46.9,46.9,30.25,NE,45,10.4,11.9,100,0.03,,,0.13,NetBSD+Arduino,2013-04-21 04:04:00,
2013-04-20 21:06:00,46.9,46.9,30.25,NE,45,3.0,11.9,100,0.03,,,0.13,NetBSD+Arduino,2013-04-21 04:06:00,
2013-04-20 21:11:00,46.9,46.9,30.25,East,90,7.5,9.0,100,0.03,,,0.13,NetBSD+Arduino,2013-04-21 04:11:00,
2013-04-20 21:14:00,46.9,46.9,30.25,North,0,3.0,10.4,100,0.03,,,0.13,NetBSD+Arduino,2013-04-21 04:14:00,
2013-04-20 21:19:00,46.9,46.9,30.25,North,0,6.0,9.0,100,0.02,,,0.13,NetBSD+Arduino,2013-04-21 04:19:00,
2013-04-20 21:24:00,46.8,46.8,30.25,NE,45,3.0,10.4,100,0.02,,,0.13,NetBSD+Arduino,2013-04-21 04:24:00,
2013-04-20 21:29:00,46.8,46.8,30.25,NE,45,7.5,10.4,100,0.02,,,0.13,NetBSD+Arduino,2013-04-21 04:29:00,
2013-04-20 21:34:00,46.8,46.8,30.25,NE,45,3.0,9.0,100,0.00,,,0.13,NetBSD+Arduino,2013-04-21 04:34:00,
2013-04-20 21:39:00,46.8,46.8,30.25,NE,45,4.5,9.0,100,0.00,,,0.13,NetBSD+Arduino,2013-04-21 04:39:00,
2013-04-20 21:44:00,46.8,46.8,30.25,East,90,4.5,10.4,100,0.00,,,0.13,NetBSD+Arduino,2013-04-21 04:44:00,
2013-04-20 21:49:00,46.8,46.8,30.26,East,90,4.5,10.4,100,0.00,,,0.13,NetBSD+Arduino,2013-04-21 04:49:00,
2013-04-20 21:54:00,46.9,46.9,30.26,NE,45,4.5,10.4,100,0.02,,,0.14,NetBSD+Arduino,2013-04-21 04:54:00,
2013-04-20 21:59:00,46.9,46.9,30.26,North,0,3.0,9.0,100,0.02,,,0.14,NetBSD+Arduino,2013-04-21 04:59:00,
2013-04-20 22:04:00,46.8,46.8,30.26,East,90,4.5,6.0,100,0.02,,,0.14,NetBSD+Arduino,2013-04-21 05:04:00,
2013-04-20 22:09:00,46.8,46.8,30.26,NE,45,3.0,7.5,100,0.02,,,0.14,NetBSD+Arduino,2013-04-21 05:09:00,
2013-04-20 22:15:00,46.7,46.7,30.26,NE,45,3.0,7.5,100,0.02,,,0.14,NetBSD+Arduino,2013-04-21 05:15:00,
2013-04-20 22:20:00,46.7,46.7,30.26,NE,45,3.0,7.5,100,0.02,,,0.14,NetBSD+Arduino,2013-04-21 05:20:00,
2013-04-20 22:25:00,46.7,46.7,30.26,North,0,3.0,9.0,100,0.02,,,0.14,NetBSD+Arduino,2013-04-21 05:25:00,
2013-04-20 22:30:00,46.6,46.6,30.26,East,90,4.5,9.0,100,0.02,,,0.14,NetBSD+Arduino,2013-04-21 05:30:00,
2013-04-20 22:35:00,46.6,46.6,30.26,East,90,4.5,9.0,100,0.03,,,0.16,NetBSD+Arduino,2013-04-21 05:35:00,
2013-04-20 22:40:00,46.4,46.4,30.26,East,90,1.5,7.5,100,0.03,,,0.16,NetBSD+Arduino,2013-04-21 05:40:00,
2013-04-20 22:45:00,46.4,46.4,30.26,East,90,6.0,6.0,100,0.03,,,0.16,NetBSD+Arduino,2013-04-21 05:45:00,
2013-04-20 22:50:00,46.4,46.4,30.26,North,0,3.0,7.5,100,0.03,,,0.16,NetBSD+Arduino,2013-04-21 05:50:00,
2013-04-20 22:55:00,46.4,46.4,30.26,East,90,1.5,4.5,100,0.02,,,0.16,NetBSD+Arduino,2013-04-21 05:55:00,
2013-04-20 23:00:00,46.4,46.4,30.27,South,180,3.0,4.5,100,0.02,,,0.16,NetBSD+Arduino,2013-04-21 06:00:00,
2013-04-20 23:05:00,46.5,46.5,30.27,SW,225,0.0,4.5,100,0.02,,,0.16,NetBSD+Arduino,2013-04-21 06:05:00,
2013-04-20 23:10:00,46.4,46.4,30.27,East,90,0.0,1.5,100,0.02,,,0.16,NetBSD+Arduino,2013-04-21 06:10:00,
2013-04-20 23:15:00,46.5,46.5,30.27,SW,225,0.0,0.0,100,0.03,,,0.18,NetBSD+Arduino,2013-04-21 06:15:00,
2013-04-20 23:20:00,46.6,46.6,30.27,South,180,0.0,3.0,100,0.03,,,0.18,NetBSD+Arduino,2013-04-21 06:20:00,
2013-04-20 23:25:00,46.6,46.6,30.27,South,180,0.0,0.0,100,0.03,,,0.18,NetBSD+Arduino,2013-04-21 06:25:00,
2013-04-20 23:31:00,46.5,46.5,30.27,South,180,0.0,3.0,100,0.03,,,0.18,NetBSD+Arduino,2013-04-21 06:31:00,
2013-04-20 23:36:00,46.5,46.5,30.27,SW,225,0.0,6.0,100,0.02,,,0.18,NetBSD+Arduino,2013-04-21 06:36:00,
2013-04-20 23:41:00,46.5,46.5,30.27,South,180,1.5,3.0,100,0.02,,,0.18,NetBSD+Arduino,2013-04-21 06:41:00,
2013-04-20 23:46:00,46.5,46.5,30.26,South,180,1.5,3.0,100,0.02,,,0.18,NetBSD+Arduino,2013-04-21 06:46:00,
2013-04-20 23:51:00,46.5,46.5,30.26,NW,315,0.0,3.0,100,0.02,,,0.18,NetBSD+Arduino,2013-04-21 06:51:00,
2013-04-20 23:56:00,46.5,46.5,30.26,NW,315,0.0,3.0,100,0.02,,,0.18,NetBSD+Arduino,2013-04-21 06:56:00,